Branson, MO

2:50 AM CDT on August 20, 2017 (GMT -0500)
Branson

Weather History for KBBG - May, 2014

Change the Weather History Date:

Sunday, May 11, 2014

  Actual Average (KHRO) Record (KHRO)
Temperature  
Mean Temperature 75 °F -  
Max Temperature 84 °F 75 °F 91 °F (1902)
Min Temperature 66 °F 54 °F 36 °F (1969)
Cooling Degree Days 10    
Growing Degree Days 25 (Base 50)    
Moisture  
Dew Point 65 °F    
Average Humidity 81    
Maximum Humidity 94    
Minimum Humidity 54    
Precipitation  
Precipitation 0.00 in - - ()
Sea Level Pressure  
Sea Level Pressure 29.88 in    
Wind  
Wind Speed 7 mph (SSE)    
Max Wind Speed 17 mph    
Max Gust Speed 29 mph    
Visibility 10 miles    
Events      
Averages and records for this station are not official NWS values.
T = Trace of Precipitation, MM = Missing Value Source: NWS Daily Summary

Daily Weather History Graph

Daily Weather History Graph

Search for Another Location

Airport or City:

Trip Planner

Search our weather history database for the weather conditions in past years. The results will help you decide how hot, cold, wet, or windy it might be!

Date:

Astronomy

May. 11, 2014 Rise Set
Actual Time 6:09 AM CDT 8:09 PM CDT
Civil Twilight 5:40 AM CDT 8:38 PM CDT
Nautical Twilight 5:06 AM CDT 9:12 PM CDT
Astronomical Twilight 4:28 AM CDT 9:50 PM CDT
Moon 5:11 PM CDT (5/11) 4:08 AM CDT (5/11)
Length of Visible Light 14h 57m
Length of Day
14h 00m
Waxing Gibbous, 89% of the Moon is Illuminated
May 11
Waxing Gibbous
May 14
Full
May 21
Last Quarter
May 28
New
Jun 5
First Quarter

Hourly Weather History & Observations

Time (CDT) Temp. Heat Index Dew Point Humidity Pressure Visibility Wind Dir Wind Speed Gust Speed Precip Events Conditions
12:15 AM 66.2 °F - 64.4 °F 94% 29.91 in 10.0 mi SE 4.6 mph - N/A   Clear
12:35 AM 66.2 °F - 64.4 °F 94% 29.91 in 10.0 mi SE 8.1 mph - N/A   Clear
12:55 AM 66.2 °F - 64.4 °F 94% 29.91 in 10.0 mi SE 8.1 mph - N/A   Clear
1:15 AM 66.2 °F - 64.4 °F 94% 29.90 in 10.0 mi SE 9.2 mph - N/A   Clear
1:35 AM 66.2 °F - 64.4 °F 94% 29.89 in 10.0 mi SE 9.2 mph - N/A   Clear
1:55 AM 66.2 °F - 64.4 °F 94% 29.89 in 10.0 mi SSE 3.5 mph - N/A   Clear
2:15 AM 66.2 °F - 64.4 °F 94% 29.89 in 10.0 mi Calm Calm - N/A   Clear
2:35 AM 66.2 °F - 64.4 °F 94% 29.89 in 10.0 mi SSE 8.1 mph - N/A   Clear
2:55 AM 68.0 °F - 64.4 °F 88% 29.88 in 10.0 mi SSE 8.1 mph - N/A   Clear
3:15 AM 68.0 °F - 64.4 °F 88% 29.88 in 10.0 mi Calm Calm - N/A   Clear
3:35 AM 68.0 °F - 64.4 °F 88% 29.88 in 10.0 mi SE 5.8 mph - N/A   Partly Cloudy
3:55 AM 66.2 °F - 64.4 °F 94% 29.88 in 10.0 mi ESE 4.6 mph - N/A   Mostly Cloudy
4:15 AM 68.0 °F - 64.4 °F 88% 29.89 in 10.0 mi Calm Calm - N/A   Overcast
4:35 AM 68.0 °F - 64.4 °F 88% 29.89 in 10.0 mi ESE 3.5 mph - N/A   Overcast
4:55 AM 66.2 °F - 64.4 °F 94% 29.88 in 10.0 mi ESE 5.8 mph - N/A   Overcast
5:15 AM 66.2 °F - 64.4 °F 94% 29.88 in 10.0 mi Calm Calm - N/A   Overcast
5:35 AM 66.2 °F - 64.4 °F 94% 29.88 in 10.0 mi Calm Calm - N/A   Overcast
5:55 AM 66.2 °F - 64.4 °F 94% 29.88 in 10.0 mi ESE 8.1 mph - N/A   Overcast
6:15 AM 68.0 °F - 66.2 °F 94% 29.89 in 10.0 mi ESE 5.8 mph - N/A   Mostly Cloudy
6:45 AM 66.2 °F - 64.4 °F 94% 29.89 in 10.0 mi ESE 8.1 mph - N/A   Mostly Cloudy
7:45 AM 68.0 °F - 66.2 °F 94% 29.91 in 10.0 mi ESE 8.1 mph - N/A   Overcast
8:45 AM 73.4 °F - 68.0 °F 83% 29.92 in 10.0 mi ESE 8.1 mph - N/A   Mostly Cloudy
9:45 AM 77.0 °F - 66.2 °F 69% 29.92 in 10.0 mi South 17.3 mph 24.2 mph N/A   Mostly Cloudy
10:45 AM 78.8 °F - 64.4 °F 61% 29.92 in 10.0 mi South 15.0 mph 23.0 mph N/A   Mostly Cloudy
11:45 AM 80.6 °F 82.7 °F 66.2 °F 61% 29.93 in 10.0 mi South 9.2 mph 18.4 mph N/A   Mostly Cloudy
12:55 PM 80.6 °F 82.7 °F 66.2 °F 61% 29.91 in 10.0 mi South 11.5 mph 20.7 mph N/A   Overcast
1:45 PM 82.4 °F 84.6 °F 66.2 °F 58% 29.90 in 10.0 mi South 11.5 mph 20.7 mph N/A   Mostly Cloudy
3:45 PM 82.4 °F 84.6 °F 66.2 °F 58% 29.86 in 10.0 mi SSE 13.8 mph 28.8 mph N/A   Mostly Cloudy
4:45 PM 82.4 °F 84.6 °F 66.2 °F 58% 29.85 in 10.0 mi South 17.3 mph - N/A   Scattered Clouds
5:45 PM 84.2 °F 86.6 °F 66.2 °F 55% 29.83 in 10.0 mi SSE 13.8 mph 20.7 mph N/A   Scattered Clouds
6:45 PM 82.4 °F 83.9 °F 64.4 °F 54% 29.82 in 10.0 mi South 13.8 mph 20.7 mph N/A   Partly Cloudy
7:45 PM 77.0 °F - 66.2 °F 69% 29.82 in 10.0 mi SSE 11.5 mph - N/A   Scattered Clouds
8:46 PM 75.2 °F - 66.2 °F 73% 29.84 in 10.0 mi SSE 9.2 mph - N/A   Scattered Clouds
9:15 PM 75.2 °F - 66.2 °F 73% 29.85 in 10.0 mi SSE 10.4 mph - N/A   Scattered Clouds
9:35 PM 75.2 °F - 66.2 °F 73% 29.85 in 10.0 mi SSE 10.4 mph 16.1 mph N/A   Partly Cloudy
9:55 PM 75.2 °F - 66.2 °F 73% 29.85 in 10.0 mi SE 10.4 mph 18.4 mph N/A   Mostly Cloudy
10:15 PM 73.4 °F - 66.2 °F 78% 29.86 in 10.0 mi SSE 8.1 mph - N/A   Mostly Cloudy
10:35 PM 73.4 °F - 66.2 °F 78% 29.85 in 10.0 mi SSE 13.8 mph 18.4 mph N/A   Scattered Clouds
10:55 PM 73.4 °F - 66.2 °F 78% 29.85 in 10.0 mi SSE 12.7 mph - N/A   Partly Cloudy
11:15 PM 75.2 °F - 66.2 °F 73% 29.85 in 10.0 mi SSE 10.4 mph 20.7 mph N/A   Mostly Cloudy
11:35 PM 73.4 °F - 66.2 °F 78% 29.85 in 10.0 mi SSE 10.4 mph 16.1 mph N/A   Overcast
11:55 PM 73.4 °F - 66.2 °F 78% 29.86 in 10.0 mi SSE 9.2 mph 16.1 mph N/A   Overcast